Wetterdaten: Donnerstag, 12.08.2021
Datum Zeit Temp. I. Temp. A. Boden 5 cm Feuchte I. Feuchte A. Sonne Luftdruck Regen Wind
12.08.2021 00:00 23,7 C 19,0 C 13,2 C 65 % 81 % 33 % 1017 hPa 0,0 l/m 0,0 km/h (0 Bft)
12.08.2021 00:16 23,7 C 19,0 C 13,2 C 65 % 81 % 33 % 1017 hPa 0,0 l/m 0,0 km/h (0 Bft)
12.08.2021 00:19 23,7 C 19,0 C 13,3 C 65 % 81 % 33 % 1017 hPa 0,0 l/m 0,0 km/h (0 Bft)
12.08.2021 00:22 23,7 C 18,9 C 13,2 C 65 % 81 % 33 % 1017 hPa 0,0 l/m 0,0 km/h (0 Bft)
12.08.2021 00:25 23,7 C 18,9 C 13,2 C 65 % 81 % 33 % 1017 hPa 0,0 l/m 0,0 km/h (0 Bft)
12.08.2021 00:28 23,7 C 18,8 C 13,2 C 65 % 81 % 33 % 1017 hPa 0,0 l/m 0,0 km/h (0 Bft)
12.08.2021 00:31 23,6 C 18,8 C 13,2 C 65 % 81 % 33 % 1017 hPa 0,0 l/m 0,0 km/h (0 Bft)
12.08.2021 00:34 23,7 C 18,8 C 13,2 C 65 % 81 % 33 % 1017 hPa 0,0 l/m 0,0 km/h (0 Bft)
12.08.2021 00:37 23,7 C 18,8 C 13,2 C 65 % 81 % 33 % 1017 hPa 0,0 l/m 0,0 km/h (0 Bft)
12.08.2021 00:40 23,6 C 18,8 C 13,2 C 65 % 81 % 33 % 1017 hPa 0,0 l/m 0,0 km/h (0 Bft)
12.08.2021 00:43 23,7 C 18,8 C 13,2 C 65 % 81 % 33 % 1017 hPa 0,0 l/m 0,0 km/h (0 Bft)
12.08.2021 00:46 23,7 C 18,7 C 13,2 C 65 % 81 % 33 % 1017 hPa 0,0 l/m 0,0 km/h (0 Bft)
12.08.2021 00:49 23,6 C 18,7 C 13,2 C 65 % 81 % 33 % 1017 hPa 0,0 l/m 0,0 km/h (0 Bft)
12.08.2021 00:52 23,7 C 18,7 C 13,2 C 65 % 81 % 33 % 1017 hPa 0,0 l/m 0,0 km/h (0 Bft)
12.08.2021 00:55 23,7 C 18,6 C 13,2 C 65 % 81 % 33 % 1017 hPa 0,0 l/m 0,0 km/h (0 Bft)
12.08.2021 00:58 23,6 C 18,6 C 13,1 C 65 % 82 % 33 % 1017 hPa 0,0 l/m 0,0 km/h (0 Bft)
12.08.2021 01:01 23,6 C 18,6 C 13,2 C 65 % 82 % 33 % 1017 hPa 0,0 l/m 0,0 km/h (0 Bft)
12.08.2021 01:04 23,6 C 18,6 C 13,2 C 65 % 82 % 33 % 1017 hPa 0,0 l/m 0,0 km/h (0 Bft)
12.08.2021 01:07 23,6 C 18,6 C 13,2 C 65 % 82 % 33 % 1017 hPa 0,0 l/m 0,0 km/h (0 Bft)
12.08.2021 01:10 23,7 C 18,5 C 13,2 C 65 % 82 % 33 % 1017 hPa 0,0 l/m 0,0 km/h (0 Bft)
12.08.2021 01:13 23,6 C 18,4 C 13,2 C 65 % 82 % 33 % 1017 hPa 0,0 l/m 0,0 km/h (0 Bft)
12.08.2021 01:16 23,7 C 18,4 C 13,3 C 65 % 82 % 33 % 1017 hPa 0,0 l/m 0,0 km/h (0 Bft)
12.08.2021 01:19 23,7 C 18,3 C 13,2 C 65 % 82 % 33 % 1017 hPa 0,0 l/m 0,0 km/h (0 Bft)
12.08.2021 01:22 23,7 C 18,3 C 13,2 C 65 % 82 % 33 % 1017 hPa 0,0 l/m 0,0 km/h (0 Bft)
12.08.2021 01:25 23,6 C 18,2 C 13,1 C 65 % 82 % 33 % 1017 hPa 0,0 l/m 0,0 km/h (0 Bft)
12.08.2021 01:28 23,7 C 18,2 C 13,2 C 65 % 82 % 33 % 1017 hPa 0,0 l/m 0,0 km/h (0 Bft)
12.08.2021 01:31 23,7 C 18,2 C 13,3 C 65 % 82 % 33 % 1017 hPa 0,0 l/m 0,0 km/h (0 Bft)
12.08.2021 01:34 23,6 C 18,2 C 13,3 C 65 % 82 % 33 % 1017 hPa 0,0 l/m 0,0 km/h (0 Bft)
12.08.2021 01:37 23,7 C 18,3 C 13,3 C 65 % 82 % 33 % 1017 hPa 0,0 l/m 0,0 km/h (0 Bft)
12.08.2021 01:40 23,7 C 18,2 C 13,2 C 65 % 82 % 33 % 1017 hPa 0,0 l/m 0,0 km/h (0 Bft)
12.08.2021 01:43 23,6 C 18,2 C 13,3 C 65 % 82 % 33 % 1017 hPa 0,0 l/m 0,0 km/h (0 Bft)
12.08.2021 01:46 23,6 C 18,2 C 13,1 C 65 % 82 % 33 % 1017 hPa 0,0 l/m 0,0 km/h (0 Bft)
12.08.2021 01:49 23,7 C 18,0 C 13,1 C 65 % 82 % 33 % 1017 hPa 0,0 l/m 0,0 km/h (0 Bft)
12.08.2021 01:52 23,7 C 18,0 C 13,1 C 65 % 82 % 33 % 1017 hPa 0,0 l/m 0,0 km/h (0 Bft)
12.08.2021 01:55 23,7 C 18,0 C 13,0 C 65 % 82 % 33 % 1017 hPa 0,0 l/m 0,0 km/h (0 Bft)
12.08.2021 01:58 23,6 C 17,9 C 13,0 C 65 % 82 % 33 % 1017 hPa 0,0 l/m 0,0 km/h (0 Bft)
12.08.2021 02:01 23,6 C 17,9 C 13,1 C 65 % 82 % 33 % 1017 hPa 0,0 l/m 0,0 km/h (0 Bft)
12.08.2021 02:04 23,6 C 17,9 C 13,1 C 65 % 82 % 33 % 1017 hPa 0,0 l/m 0,0 km/h (0 Bft)
12.08.2021 02:07 23,6 C 17,9 C 13,0 C 65 % 82 % 33 % 1017 hPa 0,0 l/m 0,0 km/h (0 Bft)
12.08.2021 02:10 23,6 C 17,9 C 13,1 C 65 % 82 % 33 % 1017 hPa 0,0 l/m 0,0 km/h (0 Bft)
12.08.2021 02:13 23,7 C 17,9 C 13,1 C 65 % 82 % 33 % 1017 hPa 0,0 l/m 0,0 km/h (0 Bft)
12.08.2021 02:16 23,7 C 18,0 C 13,1 C 65 % 83 % 33 % 1017 hPa 0,0 l/m 0,0 km/h (0 Bft)
12.08.2021 02:19 23,6 C 18,0 C 13,2 C 65 % 83 % 33 % 1017 hPa 0,0 l/m 0,0 km/h (0 Bft)
12.08.2021 02:22 23,6 C 18,0 C 13,1 C 65 % 82 % 33 % 1017 hPa 0,0 l/m 0,0 km/h (0 Bft)
12.08.2021 02:25 23,6 C 18,0 C 13,1 C 65 % 82 % 33 % 1017 hPa 0,0 l/m 0,0 km/h (0 Bft)
12.08.2021 02:28 23,6 C 18,0 C 13,1 C 65 % 82 % 33 % 1017 hPa 0,0 l/m 0,0 km/h (0 Bft)
12.08.2021 02:31 23,6 C 18,0 C 13,1 C 65 % 82 % 33 % 1017 hPa 0,0 l/m 0,0 km/h (0 Bft)
12.08.2021 02:34 23,6 C 18,0 C 13,2 C 65 % 83 % 33 % 1017 hPa 0,0 l/m 0,1 km/h (0 Bft)
12.08.2021 02:37 23,6 C 17,9 C 13,1 C 65 % 82 % 33 % 1017 hPa 0,0 l/m 2,7 km/h (1 Bft)
12.08.2021 02:40 23,6 C 17,9 C 13,1 C 65 % 82 % 33 % 1017 hPa 0,0 l/m 3,3 km/h (1 Bft)
12.08.2021 02:43 23,7 C 17,8 C 13,1 C 65 % 82 % 33 % 1017 hPa 0,0 l/m 0,0 km/h (0 Bft)
12.08.2021 02:46 23,6 C 17,8 C 13,2 C 65 % 82 % 33 % 1017 hPa 0,0 l/m 0,0 km/h (0 Bft)
12.08.2021 02:49 23,6 C 17,8 C 13,1 C 65 % 82 % 33 % 1017 hPa 0,0 l/m 0,0 km/h (0 Bft)
12.08.2021 02:52 23,6 C 17,8 C 13,1 C 65 % 82 % 33 % 1017 hPa 0,0 l/m 0,0 km/h (0 Bft)
12.08.2021 02:55 23,6 C 17,8 C 13,1 C 65 % 82 % 33 % 1017 hPa 0,0 l/m 0,0 km/h (0 Bft)
12.08.2021 02:58 23,6 C 17,7 C 13,1 C 65 % 82 % 33 % 1017 hPa 0,0 l/m 0,0 km/h (0 Bft)
12.08.2021 03:01 23,6 C 17,7 C 13,0 C 65 % 82 % 33 % 1017 hPa 0,0 l/m 0,0 km/h (0 Bft)
12.08.2021 03:04 23,6 C 17,7 C 13,1 C 65 % 82 % 33 % 1017 hPa 0,0 l/m 0,0 km/h (0 Bft)
12.08.2021 03:07 23,6 C 17,6 C 13,0 C 65 % 82 % 33 % 1017 hPa 0,0 l/m 0,0 km/h (0 Bft)
12.08.2021 03:10 23,6 C 17,5 C 13,1 C 65 % 82 % 33 % 1017 hPa 0,0 l/m 0,0 km/h (0 Bft)
12.08.2021 03:13 23,6 C 17,4 C 13,1 C 65 % 82 % 33 % 1017 hPa 0,0 l/m 0,0 km/h (0 Bft)
12.08.2021 03:16 23,6 C 17,4 C 13,2 C 65 % 82 % 33 % 1017 hPa 0,0 l/m 0,0 km/h (0 Bft)
12.08.2021 03:19 23,7 C 17,4 C 13,1 C 65 % 82 % 33 % 1017 hPa 0,0 l/m 0,0 km/h (0 Bft)
12.08.2021 03:22 23,6 C 17,4 C 13,1 C 65 % 82 % 33 % 1017 hPa 0,0 l/m 0,0 km/h (0 Bft)
12.08.2021 03:25 23,7 C 17,3 C 13,2 C 65 % 82 % 33 % 1017 hPa 0,0 l/m 0,0 km/h (0 Bft)
12.08.2021 03:28 23,6 C 17,3 C 13,1 C 65 % 82 % 33 % 1017 hPa 0,0 l/m 0,0 km/h (0 Bft)
12.08.2021 03:31 23,7 C 17,3 C 13,0 C 65 % 83 % 33 % 1017 hPa 0,0 l/m 0,0 km/h (0 Bft)
12.08.2021 03:34 23,6 C 17,3 C 12,9 C 65 % 82 % 33 % 1017 hPa 0,0 l/m 0,0 km/h (0 Bft)
12.08.2021 03:37 23,6 C 17,2 C 12,9 C 65 % 83 % 33 % 1017 hPa 0,0 l/m 0,0 km/h (0 Bft)
12.08.2021 03:40 23,6 C 17,2 C 12,9 C 65 % 83 % 33 % 1017 hPa 0,0 l/m 0,0 km/h (0 Bft)
12.08.2021 03:43 23,6 C 17,2 C 13,0 C 65 % 83 % 33 % 1017 hPa 0,0 l/m 0,0 km/h (0 Bft)
12.08.2021 03:46 23,6 C 17,1 C 13,0 C 65 % 83 % 33 % 1017 hPa 0,0 l/m 0,0 km/h (0 Bft)
12.08.2021 03:49 23,6 C 17,1 C 13,0 C 65 % 83 % 33 % 1017 hPa 0,0 l/m 0,0 km/h (0 Bft)
12.08.2021 03:52 23,6 C 17,1 C 12,9 C 65 % 83 % 33 % 1017 hPa 0,0 l/m 0,0 km/h (0 Bft)
12.08.2021 03:55 23,6 C 17,1 C 13,0 C 65 % 83 % 33 % 1017 hPa 0,0 l/m 0,0 km/h (0 Bft)
12.08.2021 03:58 23,6 C 17,1 C 13,0 C 65 % 83 % 33 % 1017 hPa 0,0 l/m 0,0 km/h (0 Bft)
12.08.2021 04:01 23,6 C 17,0 C 13,0 C 65 % 83 % 33 % 1017 hPa 0,0 l/m 0,0 km/h (0 Bft)
12.08.2021 04:04 23,6 C 17,0 C 13,0 C 65 % 83 % 33 % 1017 hPa 0,0 l/m 0,0 km/h (0 Bft)
12.08.2021 04:07 23,6 C 16,9 C 13,0 C 65 % 83 % 33 % 1017 hPa 0,0 l/m 0,0 km/h (0 Bft)
12.08.2021 04:10 23,6 C 16,9 C 13,1 C 65 % 83 % 33 % 1017 hPa 0,0 l/m 0,0 km/h (0 Bft)
12.08.2021 04:13 23,6 C 16,9 C 13,0 C 65 % 83 % 33 % 1017 hPa 0,0 l/m 0,0 km/h (0 Bft)
12.08.2021 04:16 23,6 C 16,8 C 12,9 C 65 % 83 % 33 % 1017 hPa 0,0 l/m 0,0 km/h (0 Bft)
12.08.2021 04:19 23,6 C 16,8 C 12,9 C 65 % 83 % 33 % 1017 hPa 0,0 l/m 0,0 km/h (0 Bft)
12.08.2021 04:22 23,6 C 16,8 C 12,9 C 65 % 83 % 33 % 1017 hPa 0,0 l/m 0,0 km/h (0 Bft)
12.08.2021 04:25 23,6 C 16,8 C 13,0 C 65 % 83 % 33 % 1017 hPa 0,0 l/m 0,0 km/h (0 Bft)
12.08.2021 04:28 23,6 C 16,8 C 12,9 C 65 % 83 % 33 % 1017 hPa 0,0 l/m 0,0 km/h (0 Bft)
12.08.2021 04:31 23,6 C 16,8 C 12,9 C 65 % 83 % 33 % 1017 hPa 0,0 l/m 0,0 km/h (0 Bft)
12.08.2021 04:34 23,6 C 16,8 C 12,9 C 65 % 83 % 33 % 1017 hPa 0,0 l/m 0,0 km/h (0 Bft)
12.08.2021 04:37 23,6 C 16,8 C 12,9 C 65 % 83 % 33 % 1017 hPa 0,0 l/m 0,0 km/h (0 Bft)
12.08.2021 04:40 23,6 C 16,8 C 13,0 C 65 % 83 % 33 % 1017 hPa 0,0 l/m 0,0 km/h (0 Bft)
12.08.2021 04:43 23,6 C 16,6 C 12,9 C 65 % 83 % 33 % 1017 hPa 0,0 l/m 0,0 km/h (0 Bft)
12.08.2021 04:46 23,6 C 16,5 C 12,9 C 65 % 83 % 33 % 1017 hPa 0,0 l/m 0,0 km/h (0 Bft)
12.08.2021 04:49 23,6 C 16,5 C 12,9 C 65 % 83 % 33 % 1017 hPa 0,0 l/m 0,0 km/h (0 Bft)
12.08.2021 04:52 23,6 C 16,5 C 13,0 C 65 % 83 % 33 % 1017 hPa 0,0 l/m 0,0 km/h (0 Bft)
12.08.2021 04:55 23,6 C 16,5 C 12,9 C 65 % 83 % 33 % 1017 hPa 0,0 l/m 0,0 km/h (0 Bft)
12.08.2021 04:58 23,6 C 16,5 C 13,0 C 65 % 83 % 33 % 1017 hPa 0,0 l/m 0,0 km/h (0 Bft)
12.08.2021 05:01 23,6 C 16,4 C 13,0 C 65 % 83 % 33 % 1017 hPa 0,0 l/m 0,0 km/h (0 Bft)
12.08.2021 05:04 23,6 C 16,5 C 12,9 C 65 % 83 % 33 % 1017 hPa 0,0 l/m 0,0 km/h (0 Bft)
12.08.2021 05:07 23,6 C 16,4 C 12,8 C 65 % 83 % 33 % 1017 hPa 0,0 l/m 0,0 km/h (0 Bft)
12.08.2021 05:10 23,6 C 16,4 C 12,9 C 65 % 83 % 33 % 1017 hPa 0,0 l/m 0,0 km/h (0 Bft)
12.08.2021 05:13 23,6 C 16,3 C 12,9 C 65 % 83 % 33 % 1017 hPa 0,0 l/m 0,0 km/h (0 Bft)
12.08.2021 05:16 23,6 C 16,3 C 12,9 C 65 % 83 % 33 % 1017 hPa 0,0 l/m 0,0 km/h (0 Bft)
12.08.2021 05:19 23,6 C 16,2 C 12,8 C 65 % 83 % 33 % 1017 hPa 0,0 l/m 0,0 km/h (0 Bft)
12.08.2021 05:22 23,6 C 16,1 C 12,7 C 65 % 83 % 33 % 1017 hPa 0,0 l/m 0,0 km/h (0 Bft)
12.08.2021 05:25 23,6 C 16,1 C 12,7 C 65 % 83 % 33 % 1017 hPa 0,0 l/m 0,0 km/h (0 Bft)
12.08.2021 05:28 23,6 C 16,2 C 12,8 C 65 % 83 % 33 % 1017 hPa 0,0 l/m 0,0 km/h (0 Bft)
12.08.2021 05:31 23,6 C 16,2 C 12,8 C 65 % 83 % 33 % 1017 hPa 0,0 l/m 0,0 km/h (0 Bft)
12.08.2021 05:34 23,6 C 16,2 C 12,9 C 65 % 83 % 33 % 1017 hPa 0,0 l/m 0,0 km/h (0 Bft)
12.08.2021 05:37 23,6 C 16,1 C 12,9 C 65 % 83 % 33 % 1017 hPa 0,0 l/m 0,0 km/h (0 Bft)
12.08.2021 05:40 23,6 C 16,0 C 12,9 C 65 % 83 % 33 % 1017 hPa 0,0 l/m 0,0 km/h (0 Bft)
12.08.2021 05:43 23,6 C 16,1 C 12,8 C 65 % 83 % 33 % 1017 hPa 0,0 l/m 0,0 km/h (0 Bft)
12.08.2021 05:46 23,7 C 16,0 C 12,8 C 65 % 83 % 33 % 1017 hPa 0,0 l/m 0,0 km/h (0 Bft)
12.08.2021 05:49 23,7 C 16,0 C 12,9 C 65 % 83 % 33 % 1017 hPa 0,0 l/m 0,0 km/h (0 Bft)
12.08.2021 05:52 23,7 C 16,0 C 13,0 C 65 % 83 % 33 % 1017 hPa 0,0 l/m 0,0 km/h (0 Bft)
12.08.2021 05:55 23,7 C 16,0 C 12,8 C 65 % 83 % 33 % 1017 hPa 0,0 l/m 0,0 km/h (0 Bft)
12.08.2021 05:58 23,7 C 16,0 C 12,8 C 65 % 83 % 33 % 1017 hPa 0,0 l/m 0,0 km/h (0 Bft)
12.08.2021 06:01 23,7 C 16,0 C 12,8 C 65 % 83 % 33 % 1017 hPa 0,0 l/m 0,0 km/h (0 Bft)
12.08.2021 06:04 23,7 C 16,0 C 12,8 C 65 % 83 % 33 % 1017 hPa 0,0 l/m 0,0 km/h (0 Bft)
12.08.2021 06:07 23,7 C 16,0 C 12,7 C 65 % 83 % 33 % 1017 hPa 0,0 l/m 0,0 km/h (0 Bft)
12.08.2021 06:10 23,6 C 16,0 C 12,7 C 65 % 83 % 33 % 1017 hPa 0,0 l/m 0,0 km/h (0 Bft)
12.08.2021 06:13 23,7 C 16,0 C 12,8 C 65 % 83 % 33 % 1017 hPa 0,0 l/m 0,0 km/h (0 Bft)
12.08.2021 06:16 23,7 C 16,0 C 12,8 C 65 % 83 % 33 % 1017 hPa 0,0 l/m 0,0 km/h (0 Bft)
12.08.2021 06:19 23,6 C 16,0 C 12,8 C 65 % 83 % 33 % 1017 hPa 0,0 l/m 0,0 km/h (0 Bft)
12.08.2021 06:22 23,6 C 16,0 C 12,8 C 65 % 83 % 33 % 1017 hPa 0,0 l/m 0,0 km/h (0 Bft)
12.08.2021 06:25 23,7 C 16,0 C 12,9 C 65 % 83 % 33 % 1017 hPa 0,0 l/m 0,0 km/h (0 Bft)
12.08.2021 06:28 23,7 C 15,9 C 12,8 C 65 % 83 % 33 % 1017 hPa 0,0 l/m 0,0 km/h (0 Bft)
12.08.2021 06:31 23,7 C 15,9 C 12,9 C 65 % 83 % 33 % 1017 hPa 0,0 l/m 0,0 km/h (0 Bft)
12.08.2021 06:34 23,6 C 15,9 C 12,7 C 65 % 83 % 33 % 1017 hPa 0,0 l/m 0,0 km/h (0 Bft)
12.08.2021 06:37 23,7 C 15,9 C 12,8 C 65 % 83 % 33 % 1017 hPa 0,0 l/m 0,0 km/h (0 Bft)
12.08.2021 06:40 23,7 C 15,9 C 12,7 C 65 % 83 % 33 % 1017 hPa 0,0 l/m 0,0 km/h (0 Bft)
12.08.2021 06:43 23,7 C 16,0 C 12,8 C 65 % 83 % 33 % 1017 hPa 0,0 l/m 0,0 km/h (0 Bft)
12.08.2021 06:46 23,7 C 15,9 C 12,6 C 65 % 83 % 33 % 1017 hPa 0,0 l/m 0,0 km/h (0 Bft)
12.08.2021 06:49 23,6 C 16,0 C 12,7 C 65 % 83 % 33 % 1017 hPa 0,0 l/m 0,0 km/h (0 Bft)
12.08.2021 06:52 23,6 C 16,0 C 12,7 C 65 % 83 % 33 % 1017 hPa 0,0 l/m 0,0 km/h (0 Bft)
12.08.2021 06:55 23,6 C 16,1 C 12,7 C 65 % 83 % 33 % 1017 hPa 0,0 l/m 0,0 km/h (0 Bft)
12.08.2021 06:58 23,6 C 16,1 C 12,7 C 65 % 83 % 33 % 1017 hPa 0,0 l/m 0,0 km/h (0 Bft)
12.08.2021 07:01 23,6 C 16,1 C 12,7 C 65 % 83 % 33 % 1017 hPa 0,0 l/m 0,0 km/h (0 Bft)
12.08.2021 07:04 23,6 C 16,2 C 12,7 C 65 % 83 % 33 % 1017 hPa 0,0 l/m 0,0 km/h (0 Bft)
12.08.2021 07:07 23,6 C 16,2 C 12,7 C 65 % 83 % 33 % 1017 hPa 0,0 l/m 0,0 km/h (0 Bft)
12.08.2021 07:10 23,6 C 16,2 C 12,5 C 65 % 83 % 33 % 1017 hPa 0,0 l/m 0,0 km/h (0 Bft)
12.08.2021 07:13 23,6 C 16,4 C 12,6 C 65 % 83 % 33 % 1017 hPa 0,0 l/m 0,0 km/h (0 Bft)
12.08.2021 07:16 23,6 C 16,5 C 12,6 C 65 % 83 % 33 % 1017 hPa 0,0 l/m 0,0 km/h (0 Bft)
12.08.2021 07:19 23,6 C 16,6 C 12,6 C 65 % 83 % 33 % 1017 hPa 0,0 l/m 0,0 km/h (0 Bft)
12.08.2021 07:22 23,6 C 16,7 C 12,6 C 65 % 83 % 33 % 1017 hPa 0,0 l/m 0,0 km/h (0 Bft)
12.08.2021 07:25 23,6 C 16,8 C 12,6 C 65 % 83 % 33 % 1017 hPa 0,0 l/m 0,0 km/h (0 Bft)
12.08.2021 07:28 23,7 C 16,8 C 12,5 C 65 % 83 % 33 % 1017 hPa 0,0 l/m 0,0 km/h (0 Bft)
12.08.2021 07:31 23,6 C 16,9 C 12,6 C 65 % 82 % 33 % 1017 hPa 0,0 l/m 0,0 km/h (0 Bft)
12.08.2021 07:34 23,6 C 17,0 C 12,6 C 65 % 82 % 33 % 1017 hPa 0,0 l/m 2,0 km/h (1 Bft)
12.08.2021 07:37 23,7 C 17,2 C 12,6 C 65 % 82 % 33 % 1017 hPa 0,0 l/m 3,7 km/h (1 Bft)
12.08.2021 07:40 23,6 C 17,3 C 12,6 C 65 % 82 % 33 % 1017 hPa 0,0 l/m 3,1 km/h (1 Bft)
12.08.2021 07:43 23,7 C 17,4 C 12,5 C 65 % 82 % 33 % 1017 hPa 0,0 l/m 0,1 km/h (0 Bft)
12.08.2021 07:46 23,7 C 17,5 C 12,6 C 65 % 82 % 33 % 1017 hPa 0,0 l/m 1,7 km/h (1 Bft)
12.08.2021 07:49 23,7 C 17,6 C 12,5 C 65 % 82 % 33 % 1017 hPa 0,0 l/m 0,9 km/h (0 Bft)
12.08.2021 07:52 23,7 C 17,6 C 12,5 C 65 % 82 % 33 % 1017 hPa 0,0 l/m 0,3 km/h (0 Bft)
12.08.2021 07:55 23,7 C 17,8 C 12,4 C 65 % 82 % 33 % 1017 hPa 0,0 l/m 1,9 km/h (1 Bft)
12.08.2021 07:58 23,7 C 17,8 C 12,4 C 65 % 82 % 33 % 1017 hPa 0,0 l/m 0,6 km/h (0 Bft)
12.08.2021 08:01 23,7 C 17,9 C 12,5 C 65 % 82 % 33 % 1018 hPa 0,0 l/m 0,6 km/h (0 Bft)
12.08.2021 08:04 23,7 C 18,1 C 12,6 C 65 % 82 % 33 % 1017 hPa 0,0 l/m 0,3 km/h (0 Bft)
12.08.2021 08:07 23,7 C 18,3 C 12,5 C 65 % 82 % 33 % 1018 hPa 0,0 l/m 0,3 km/h (0 Bft)
12.08.2021 08:10 23,7 C 18,4 C 12,4 C 65 % 82 % 33 % 1018 hPa 0,0 l/m 0,3 km/h (0 Bft)
12.08.2021 08:13 23,7 C 18,4 C 12,5 C 65 % 81 % 33 % 1018 hPa 0,0 l/m 2,0 km/h (1 Bft)
12.08.2021 08:16 23,7 C 18,4 C 12,4 C 65 % 81 % 33 % 1018 hPa 0,0 l/m 1,9 km/h (1 Bft)
12.08.2021 08:19 23,7 C 18,6 C 12,5 C 65 % 81 % 33 % 1018 hPa 0,0 l/m 0,0 km/h (0 Bft)
12.08.2021 08:22 23,7 C 18,6 C 12,5 C 65 % 81 % 33 % 1018 hPa 0,0 l/m 1,2 km/h (1 Bft)
12.08.2021 08:25 23,7 C 18,6 C 12,5 C 65 % 81 % 33 % 1018 hPa 0,0 l/m 0,0 km/h (0 Bft)
12.08.2021 08:28 23,7 C 18,7 C 12,5 C 65 % 81 % 33 % 1018 hPa 0,0 l/m 0,0 km/h (0 Bft)
12.08.2021 08:31 23,7 C 18,9 C 12,5 C 65 % 81 % 33 % 1018 hPa 0,0 l/m 0,6 km/h (0 Bft)
12.08.2021 08:34 23,7 C 19,0 C 12,5 C 65 % 81 % 33 % 1018 hPa 0,0 l/m 3,6 km/h (1 Bft)
12.08.2021 08:37 23,7 C 19,0 C 12,4 C 65 % 81 % 33 % 1018 hPa 0,0 l/m 6,5 km/h (2 Bft)
12.08.2021 08:40 23,7 C 19,3 C 12,5 C 65 % 80 % 33 % 1018 hPa 0,0 l/m 3,5 km/h (1 Bft)
12.08.2021 08:43 23,7 C 19,5 C 12,4 C 65 % 80 % 33 % 1018 hPa 0,0 l/m 2,9 km/h (1 Bft)
12.08.2021 08:46 23,7 C 19,6 C 12,3 C 65 % 80 % 33 % 1018 hPa 0,0 l/m 5,4 km/h (1 Bft)
12.08.2021 08:49 23,7 C 19,6 C 12,4 C 65 % 79 % 33 % 1018 hPa 0,0 l/m 3,8 km/h (1 Bft)
12.08.2021 08:52 23,7 C 19,7 C 12,4 C 65 % 79 % 33 % 1018 hPa 0,0 l/m 3,1 km/h (1 Bft)
12.08.2021 08:55 23,7 C 19,8 C 12,4 C 65 % 79 % 33 % 1018 hPa 0,0 l/m 3,7 km/h (1 Bft)
12.08.2021 08:58 23,7 C 19,8 C 12,4 C 65 % 79 % 33 % 1018 hPa 0,0 l/m 5,6 km/h (1 Bft)
12.08.2021 09:01 23,7 C 19,9 C 12,4 C 65 % 79 % 33 % 1018 hPa 0,0 l/m 1,2 km/h (1 Bft)
12.08.2021 09:04 23,7 C 20,0 C 12,4 C 65 % 78 % 33 % 1018 hPa 0,0 l/m 0,6 km/h (0 Bft)
12.08.2021 09:07 23,7 C 20,1 C 12,4 C 65 % 78 % 33 % 1018 hPa 0,0 l/m 4,0 km/h (1 Bft)
12.08.2021 09:10 23,7 C 20,2 C 12,4 C 65 % 78 % 33 % 1018 hPa 0,0 l/m 1,2 km/h (1 Bft)
12.08.2021 09:13 23,7 C 20,4 C 12,4 C 65 % 78 % 33 % 1018 hPa 0,0 l/m 2,8 km/h (1 Bft)
12.08.2021 09:16 23,7 C 20,5 C 12,4 C 65 % 78 % 33 % 1018 hPa 0,0 l/m 7,4 km/h (2 Bft)
12.08.2021 09:19 23,7 C 20,6 C 12,3 C 65 % 78 % 33 % 1018 hPa 0,0 l/m 3,5 km/h (1 Bft)
12.08.2021 09:22 23,7 C 20,7 C 12,4 C 65 % 77 % 33 % 1018 hPa 0,0 l/m 3,7 km/h (1 Bft)
12.08.2021 09:25 23,7 C 20,7 C 12,4 C 65 % 77 % 33 % 1018 hPa 0,0 l/m 2,7 km/h (1 Bft)
12.08.2021 09:28 23,8 C 20,9 C 12,4 C 65 % 77 % 33 % 1018 hPa 0,0 l/m 5,8 km/h (2 Bft)
12.08.2021 09:31 23,8 C 21,0 C 12,4 C 65 % 77 % 33 % 1018 hPa 0,0 l/m 4,7 km/h (1 Bft)
12.08.2021 09:34 23,7 C 21,1 C 12,4 C 65 % 77 % 33 % 1018 hPa 0,0 l/m 2,4 km/h (1 Bft)
12.08.2021 09:37 23,8 C 21,2 C 12,3 C 65 % 76 % 33 % 1018 hPa 0,0 l/m 6,5 km/h (2 Bft)
12.08.2021 09:40 23,8 C 21,2 C 12,4 C 64 % 75 % 33 % 1018 hPa 0,0 l/m 1,2 km/h (1 Bft)
12.08.2021 09:43 23,8 C 21,5 C 12,5 C 64 % 76 % 33 % 1018 hPa 0,0 l/m 2,2 km/h (1 Bft)
12.08.2021 09:46 23,7 C 21,6 C 12,4 C 64 % 75 % 33 % 1018 hPa 0,0 l/m 6,8 km/h (2 Bft)
12.08.2021 09:49 23,7 C 21,8 C 12,4 C 64 % 75 % 33 % 1018 hPa 0,0 l/m 9,1 km/h (2 Bft)
12.08.2021 09:52 23,8 C 21,8 C 12,4 C 64 % 74 % 33 % 1018 hPa 0,0 l/m 8,7 km/h (2 Bft)
12.08.2021 09:55 23,7 C 21,9 C 12,3 C 64 % 73 % 33 % 1018 hPa 0,0 l/m 7,0 km/h (2 Bft)
12.08.2021 09:58 23,8 C 22,0 C 12,3 C 64 % 74 % 33 % 1018 hPa 0,0 l/m 6,1 km/h (2 Bft)
12.08.2021 10:01 23,8 C 22,0 C 12,3 C 65 % 74 % 33 % 1018 hPa 0,0 l/m 2,4 km/h (1 Bft)
12.08.2021 10:04 23,8 C 22,1 C 12,2 C 64 % 73 % 33 % 1018 hPa 0,0 l/m 7,2 km/h (2 Bft)
12.08.2021 10:07 23,8 C 22,2 C 12,3 C 64 % 74 % 33 % 1018 hPa 0,0 l/m 10,0 km/h (2 Bft)
12.08.2021 10:10 23,8 C 22,2 C 12,3 C 64 % 74 % 33 % 1018 hPa 0,0 l/m 6,5 km/h (2 Bft)
12.08.2021 10:13 23,8 C 22,4 C 12,3 C 64 % 73 % 33 % 1018 hPa 0,0 l/m 7,7 km/h (2 Bft)
12.08.2021 10:16 23,8 C 22,4 C 12,3 C 64 % 73 % 33 % 1018 hPa 0,0 l/m 2,4 km/h (1 Bft)
12.08.2021 10:19 23,8 C 22,5 C 12,3 C 64 % 72 % 33 % 1018 hPa 0,0 l/m 9,0 km/h (2 Bft)
12.08.2021 10:22 23,8 C 22,5 C 12,3 C 64 % 72 % 33 % 1018 hPa 0,0 l/m 10,0 km/h (2 Bft)
12.08.2021 10:25 23,8 C 22,6 C 12,4 C 64 % 72 % 33 % 1018 hPa 0,0 l/m 7,9 km/h (2 Bft)
12.08.2021 10:28 23,8 C 22,6 C 12,4 C 64 % 72 % 33 % 1018 hPa 0,0 l/m 8,0 km/h (2 Bft)
12.08.2021 10:31 23,8 C 22,6 C 12,4 C 64 % 71 % 33 % 1018 hPa 0,0 l/m 8,6 km/h (2 Bft)
12.08.2021 10:34 23,8 C 22,7 C 12,4 C 64 % 71 % 33 % 1018 hPa 0,0 l/m 6,6 km/h (2 Bft)
12.08.2021 10:37 23,8 C 22,8 C 12,3 C 64 % 71 % 33 % 1018 hPa 0,0 l/m 8,1 km/h (2 Bft)
12.08.2021 10:40 23,8 C 23,0 C 12,3 C 64 % 72 % 33 % 1018 hPa 0,0 l/m 8,0 km/h (2 Bft)
12.08.2021 10:43 23,8 C 23,1 C 12,3 C 64 % 70 % 33 % 1018 hPa 0,0 l/m 9,0 km/h (2 Bft)
12.08.2021 10:46 23,8 C 23,2 C 12,3 C 64 % 69 % 33 % 1018 hPa 0,0 l/m 9,6 km/h (2 Bft)
12.08.2021 10:49 23,8 C 23,3 C 12,3 C 64 % 69 % 33 % 1018 hPa 0,0 l/m 13,7 km/h (3 Bft)
12.08.2021 10:52 23,8 C 23,4 C 12,4 C 64 % 69 % 33 % 1018 hPa 0,0 l/m 9,8 km/h (2 Bft)
12.08.2021 10:55 23,8 C 23,6 C 12,5 C 64 % 69 % 33 % 1018 hPa 0,0 l/m 8,8 km/h (2 Bft)
12.08.2021 10:58 23,8 C 23,6 C 12,5 C 64 % 69 % 33 % 1018 hPa 0,0 l/m 8,8 km/h (2 Bft)
12.08.2021 11:01 23,8 C 23,6 C 12,5 C 64 % 68 % 33 % 1018 hPa 0,0 l/m 7,4 km/h (2 Bft)
12.08.2021 11:04 23,8 C 23,9 C 12,5 C 64 % 69 % 33 % 1018 hPa 0,0 l/m 7,4 km/h (2 Bft)
12.08.2021 11:07 23,8 C 24,0 C 12,5 C 64 % 68 % 33 % 1018 hPa 0,0 l/m 5,2 km/h (1 Bft)
12.08.2021 11:10 23,8 C 24,0 C 12,6 C 64 % 68 % 33 % 1018 hPa 0,0 l/m 9,0 km/h (2 Bft)
12.08.2021 11:13 23,8 C 24,1 C 12,6 C 64 % 69 % 33 % 1018 hPa 0,0 l/m 10,3 km/h (2 Bft)
12.08.2021 11:16 23,9 C 24,3 C 12,4 C 64 % 68 % 33 % 1018 hPa 0,0 l/m 9,0 km/h (2 Bft)
12.08.2021 11:19 23,9 C 24,2 C 12,4 C 64 % 68 % 33 % 1018 hPa 0,0 l/m 8,3 km/h (2 Bft)
12.08.2021 11:22 23,9 C 24,2 C 12,4 C 64 % 68 % 33 % 1018 hPa 0,0 l/m 5,2 km/h (1 Bft)
12.08.2021 11:25 23,8 C 24,4 C 12,5 C 64 % 68 % 33 % 1018 hPa 0,0 l/m 6,8 km/h (2 Bft)
12.08.2021 11:28 23,9 C 24,4 C 12,4 C 64 % 68 % 33 % 1018 hPa 0,0 l/m 5,5 km/h (1 Bft)
12.08.2021 11:31 23,8 C 24,4 C 12,3 C 64 % 67 % 33 % 1018 hPa 0,0 l/m 7,1 km/h (2 Bft)
12.08.2021 11:34 23,8 C 24,6 C 12,4 C 64 % 68 % 33 % 1018 hPa 0,0 l/m 5,3 km/h (1 Bft)
12.08.2021 11:37 23,8 C 24,7 C 12,4 C 64 % 68 % 33 % 1018 hPa 0,0 l/m 6,5 km/h (2 Bft)
12.08.2021 11:40 23,8 C 24,7 C 12,4 C 64 % 68 % 33 % 1018 hPa 0,0 l/m 8,5 km/h (2 Bft)
12.08.2021 11:43 23,8 C 24,8 C 12,5 C 64 % 67 % 33 % 1018 hPa 0,0 l/m 4,3 km/h (1 Bft)
12.08.2021 11:46 23,8 C 24,9 C 12,5 C 64 % 67 % 33 % 1018 hPa 0,0 l/m 10,5 km/h (2 Bft)
12.08.2021 11:49 23,8 C 25,0 C 12,6 C 64 % 68 % 33 % 1018 hPa 0,0 l/m 8,8 km/h (2 Bft)
12.08.2021 11:52 23,8 C 25,0 C 12,5 C 64 % 68 % 33 % 1018 hPa 0,0 l/m 9,4 km/h (2 Bft)
12.08.2021 11:55 23,8 C 25,0 C 12,5 C 64 % 67 % 33 % 1018 hPa 0,0 l/m 5,8 km/h (2 Bft)
12.08.2021 11:58 23,8 C 24,9 C 12,4 C 64 % 68 % 33 % 1018 hPa 0,0 l/m 6,7 km/h (2 Bft)
12.08.2021 12:01 23,8 C 25,0 C 12,6 C 64 % 68 % 33 % 1018 hPa 0,0 l/m 5,9 km/h (2 Bft)
12.08.2021 12:04 23,9 C 25,0 C 12,5 C 64 % 68 % 33 % 1018 hPa 0,0 l/m 6,3 km/h (2 Bft)
12.08.2021 12:07 23,8 C 25,2 C 12,6 C 64 % 66 % 33 % 1017 hPa 0,0 l/m 5,4 km/h (1 Bft)
12.08.2021 12:10 23,8 C 25,2 C 12,7 C 64 % 66 % 33 % 1017 hPa 0,0 l/m 7,4 km/h (2 Bft)
12.08.2021 12:13 23,8 C 25,2 C 12,7 C 64 % 66 % 33 % 1017 hPa 0,0 l/m 6,7 km/h (2 Bft)
12.08.2021 12:16 23,8 C 25,2 C 12,5 C 64 % 67 % 33 % 1017 hPa 0,0 l/m 7,0 km/h (2 Bft)
12.08.2021 12:19 23,8 C 25,3 C 12,3 C 65 % 65 % 33 % 1017 hPa 0,0 l/m 4,3 km/h (1 Bft)
12.08.2021 12:22 23,9 C 25,3 C 12,4 C 65 % 66 % 33 % 1018 hPa 0,0 l/m 3,4 km/h (1 Bft)
12.08.2021 12:25 23,8 C 25,4 C 12,6 C 64 % 65 % 33 % 1017 hPa 0,0 l/m 9,8 km/h (2 Bft)
12.08.2021 12:28 23,9 C 25,6 C 12,5 C 65 % 64 % 33 % 1017 hPa 0,0 l/m 10,5 km/h (2 Bft)
12.08.2021 12:31 23,8 C 25,6 C 12,8 C 65 % 63 % 33 % 1017 hPa 0,0 l/m 8,5 km/h (2 Bft)
12.08.2021 12:34 23,9 C 25,5 C 12,4 C 65 % 64 % 33 % 1017 hPa 0,0 l/m 6,4 km/h (2 Bft)
12.08.2021 12:37 23,8 C 25,6 C 12,3 C 65 % 64 % 33 % 1017 hPa 0,0 l/m 8,3 km/h (2 Bft)
12.08.2021 12:40 23,8 C 25,6 C 12,7 C 65 % 64 % 33 % 1017 hPa 0,0 l/m 7,8 km/h (2 Bft)
12.08.2021 12:43 23,9 C 25,7 C 12,5 C 65 % 63 % 33 % 1017 hPa 0,0 l/m 3,6 km/h (1 Bft)
12.08.2021 12:46 23,9 C 25,7 C 12,5 C 65 % 64 % 33 % 1017 hPa 0,0 l/m 11,6 km/h (2 Bft)
12.08.2021 12:49 23,9 C 25,7 C 12,7 C 65 % 64 % 33 % 1017 hPa 0,0 l/m 6,8 km/h (2 Bft)
12.08.2021 12:52 23,9 C 25,9 C 12,4 C 65 % 63 % 33 % 1017 hPa 0,0 l/m 5,9 km/h (2 Bft)
12.08.2021 12:55 23,9 C 26,0 C 12,8 C 65 % 61 % 33 % 1017 hPa 0,0 l/m 10,1 km/h (2 Bft)
12.08.2021 12:58 23,9 C 26,1 C 12,6 C 65 % 62 % 33 % 1017 hPa 0,0 l/m 7,5 km/h (2 Bft)
12.08.2021 13:01 23,9 C 26,2 C 12,7 C 65 % 62 % 33 % 1017 hPa 0,0 l/m 10,4 km/h (2 Bft)
12.08.2021 13:04 23,9 C 26,3 C 12,6 C 65 % 63 % 33 % 1017 hPa 0,0 l/m 8,9 km/h (2 Bft)
12.08.2021 13:07 23,9 C 26,4 C 12,5 C 65 % 63 % 33 % 1017 hPa 0,0 l/m 9,8 km/h (2 Bft)
12.08.2021 13:10 23,9 C 26,4 C 12,5 C 65 % 60 % 33 % 1017 hPa 0,0 l/m 9,8 km/h (2 Bft)
12.08.2021 13:13 23,9 C 26,4 C 12,6 C 65 % 63 % 33 % 1017 hPa 0,0 l/m 7,6 km/h (2 Bft)
12.08.2021 13:16 24,0 C 26,4 C 12,9 C 65 % 62 % 33 % 1017 hPa 0,0 l/m 8,5 km/h (2 Bft)
12.08.2021 13:19 23,9 C 26,4 C 12,7 C 65 % 63 % 33 % 1017 hPa 0,0 l/m 6,5 km/h (2 Bft)
12.08.2021 13:22 24,0 C 26,4 C 12,5 C 65 % 63 % 33 % 1017 hPa 0,0 l/m 7,6 km/h (2 Bft)
12.08.2021 13:25 24,0 C 26,5 C 12,5 C 65 % 62 % 33 % 1017 hPa 0,0 l/m 7,4 km/h (2 Bft)
12.08.2021 13:28 24,0 C 26,5 C 12,6 C 65 % 60 % 33 % 1017 hPa 0,0 l/m 9,2 km/h (2 Bft)
12.08.2021 13:31 24,0 C 26,5 C 12,6 C 65 % 61 % 33 % 1017 hPa 0,0 l/m 0,8 km/h (0 Bft)
12.08.2021 13:34 23,9 C 26,6 C 12,6 C 65 % 61 % 33 % 1017 hPa 0,0 l/m 8,1 km/h (2 Bft)
12.08.2021 13:37 23,9 C 26,7 C 12,3 C 65 % 62 % 33 % 1017 hPa 0,0 l/m 8,0 km/h (2 Bft)
12.08.2021 13:40 24,0 C 26,8 C 12,1 C 65 % 62 % 33 % 1017 hPa 0,0 l/m 8,5 km/h (2 Bft)
12.08.2021 13:43 23,9 C 26,8 C 12,1 C 65 % 60 % 33 % 1017 hPa 0,0 l/m 2,2 km/h (1 Bft)
12.08.2021 13:46 24,0 C 26,8 C 12,1 C 65 % 61 % 33 % 1017 hPa 0,0 l/m 8,7 km/h (2 Bft)
12.08.2021 13:49 24,0 C 26,8 C 12,0 C 65 % 61 % 33 % 1017 hPa 0,0 l/m 11,1 km/h (2 Bft)
12.08.2021 13:52 24,0 C 26,8 C 12,1 C 65 % 60 % 33 % 1017 hPa 0,0 l/m 7,3 km/h (2 Bft)
12.08.2021 13:55 24,0 C 26,8 C 11,9 C 65 % 61 % 33 % 1017 hPa 0,0 l/m 4,2 km/h (1 Bft)
12.08.2021 13:58 24,0 C 26,8 C 12,0 C 65 % 60 % 33 % 1017 hPa 0,0 l/m 8,0 km/h (2 Bft)
12.08.2021 14:01 24,0 C 26,8 C 12,0 C 65 % 61 % 33 % 1017 hPa 0,0 l/m 9,0 km/h (2 Bft)
12.08.2021 14:04 23,9 C 26,9 C 12,1 C 65 % 60 % 33 % 1017 hPa 0,0 l/m 5,2 km/h (1 Bft)
12.08.2021 14:07 23,9 C 26,9 C 12,3 C 65 % 62 % 33 % 1017 hPa 0,0 l/m 5,9 km/h (2 Bft)
12.08.2021 14:10 23,9 C 26,9 C 12,3 C 65 % 61 % 33 % 1017 hPa 0,0 l/m 5,9 km/h (2 Bft)
12.08.2021 14:13 23,9 C 27,0 C 12,5 C 65 % 60 % 33 % 1017 hPa 0,0 l/m 7,4 km/h (2 Bft)
12.08.2021 14:16 24,0 C 27,0 C 12,5 C 65 % 61 % 33 % 1017 hPa 0,0 l/m 4,1 km/h (1 Bft)
12.08.2021 14:19 24,0 C 27,0 C 12,4 C 65 % 61 % 33 % 1017 hPa 0,0 l/m 0,7 km/h (0 Bft)
12.08.2021 14:22 24,0 C 27,2 C 12,5 C 65 % 60 % 33 % 1017 hPa 0,0 l/m 6,1 km/h (2 Bft)
12.08.2021 14:25 23,9 C 27,2 C 12,7 C 65 % 61 % 33 % 1017 hPa 0,0 l/m 9,6 km/h (2 Bft)
12.08.2021 14:28 24,0 C 27,2 C 12,6 C 65 % 61 % 33 % 1017 hPa 0,0 l/m 9,1 km/h (2 Bft)
12.08.2021 14:31 24,0 C 27,3 C 12,5 C 65 % 60 % 33 % 1017 hPa 0,0 l/m 8,3 km/h (2 Bft)
12.08.2021 14:34 23,9 C 27,4 C 12,4 C 65 % 58 % 33 % 1017 hPa 0,0 l/m 10,1 km/h (2 Bft)
12.08.2021 14:37 23,9 C 27,2 C 12,4 C 65 % 60 % 33 % 1017 hPa 0,0 l/m 4,7 km/h (1 Bft)
12.08.2021 14:40 24,0 C 27,2 C 12,5 C 65 % 60 % 33 % 1017 hPa 0,0 l/m 5,9 km/h (2 Bft)
12.08.2021 14:43 24,0 C 27,3 C 12,6 C 65 % 61 % 33 % 1017 hPa 0,0 l/m 8,5 km/h (2 Bft)
12.08.2021 14:46 24,0 C 27,3 C 12,8 C 65 % 59 % 33 % 1017 hPa 0,0 l/m 8,0 km/h (2 Bft)
12.08.2021 14:49 23,9 C 27,3 C 12,8 C 65 % 58 % 33 % 1017 hPa 0,0 l/m 7,6 km/h (2 Bft)
12.08.2021 14:52 24,0 C 27,4 C 12,9 C 65 % 59 % 33 % 1017 hPa 0,0 l/m 9,8 km/h (2 Bft)
12.08.2021 14:55 24,0 C 27,3 C 12,6 C 65 % 59 % 33 % 1017 hPa 0,0 l/m 8,5 km/h (2 Bft)
12.08.2021 14:58 24,0 C 27,3 C 12,7 C 65 % 60 % 33 % 1017 hPa 0,0 l/m 2,0 km/h (1 Bft)
12.08.2021 15:01 24,0 C 27,3 C 12,7 C 65 % 59 % 33 % 1017 hPa 0,0 l/m 5,6 km/h (1 Bft)
12.08.2021 15:04 24,0 C 27,4 C 12,7 C 65 % 59 % 33 % 1017 hPa 0,0 l/m 8,6 km/h (2 Bft)
12.08.2021 15:07 24,0 C 27,4 C 12,7 C 65 % 59 % 33 % 1017 hPa 0,0 l/m 8,9 km/h (2 Bft)
12.08.2021 15:10 24,0 C 27,3 C 12,7 C 65 % 59 % 33 % 1017 hPa 0,0 l/m 8,6 km/h (2 Bft)
12.08.2021 15:13 24,0 C 27,3 C 12,8 C 65 % 60 % 33 % 1017 hPa 0,0 l/m 9,3 km/h (2 Bft)
12.08.2021 15:16 24,0 C 27,4 C 13,0 C 65 % 60 % 33 % 1017 hPa 0,0 l/m 8,0 km/h (2 Bft)
12.08.2021 15:19 24,0 C 27,4 C 12,7 C 65 % 59 % 33 % 1017 hPa 0,0 l/m 5,7 km/h (1 Bft)
12.08.2021 15:22 24,0 C 27,4 C 12,6 C 65 % 59 % 33 % 1017 hPa 0,0 l/m 3,4 km/h (1 Bft)
12.08.2021 15:25 24,0 C 27,4 C 12,8 C 65 % 59 % 33 % 1017 hPa 0,0 l/m 4,4 km/h (1 Bft)
12.08.2021 15:28 24,0 C 27,5 C 13,0 C 65 % 58 % 33 % 1017 hPa 0,0 l/m 4,4 km/h (1 Bft)
12.08.2021 15:31 24,0 C 27,6 C 12,8 C 65 % 58 % 33 % 1016 hPa 0,0 l/m 4,9 km/h (1 Bft)
12.08.2021 15:34 24,0 C 27,5 C 12,9 C 65 % 58 % 33 % 1016 hPa 0,0 l/m 0,7 km/h (0 Bft)
12.08.2021 15:37 24,0 C 27,5 C 12,8 C 65 % 59 % 33 % 1016 hPa 0,0 l/m 8,3 km/h (2 Bft)
12.08.2021 15:40 24,0 C 27,6 C 12,9 C 65 % 58 % 33 % 1016 hPa 0,0 l/m 5,7 km/h (1 Bft)
12.08.2021 15:43 24,0 C 27,6 C 12,9 C 65 % 58 % 33 % 1016 hPa 0,0 l/m 5,7 km/h (1 Bft)
12.08.2021 15:46 24,0 C 27,6 C 12,7 C 65 % 58 % 33 % 1016 hPa 0,0 l/m 5,4 km/h (1 Bft)
12.08.2021 15:49 24,0 C 27,5 C 12,8 C 65 % 58 % 33 % 1016 hPa 0,0 l/m 0,5 km/h (0 Bft)
12.08.2021 15:52 24,0 C 27,5 C 13,0 C 65 % 58 % 33 % 1016 hPa 0,0 l/m 4,2 km/h (1 Bft)
12.08.2021 15:55 24,0 C 27,6 C 13,2 C 65 % 55 % 33 % 1016 hPa 0,0 l/m 0,3 km/h (0 Bft)
12.08.2021 15:58 24,1 C 27,6 C 13,0 C 65 % 55 % 33 % 1016 hPa 0,0 l/m 0,0 km/h (0 Bft)
12.08.2021 16:01 24,1 C 27,5 C 12,8 C 65 % 58 % 33 % 1016 hPa 0,0 l/m 4,8 km/h (1 Bft)
12.08.2021 16:04 24,1 C 27,4 C 12,8 C 65 % 58 % 33 % 1016 hPa 0,0 l/m 3,1 km/h (1 Bft)
12.08.2021 16:07 24,2 C 27,4 C 13,0 C 65 % 55 % 33 % 1016 hPa 0,0 l/m 1,6 km/h (1 Bft)
12.08.2021 16:10 24,2 C 27,4 C 13,0 C 66 % 55 % 33 % 1016 hPa 0,0 l/m 0,4 km/h (0 Bft)
12.08.2021 16:13 24,2 C 27,4 C 12,9 C 66 % 55 % 33 % 1016 hPa 0,0 l/m 0,0 km/h (0 Bft)
12.08.2021 16:16 24,2 C 27,4 C 12,8 C 66 % 55 % 33 % 1016 hPa 0,0 l/m 0,9 km/h (0 Bft)
12.08.2021 16:19 24,2 C 27,4 C 12,8 C 66 % 55 % 33 % 1016 hPa 0,0 l/m 5,7 km/h (1 Bft)
12.08.2021 16:22 24,2 C 27,6 C 13,1 C 66 % 53 % 33 % 1016 hPa 0,0 l/m 4,6 km/h (1 Bft)
12.08.2021 16:25 24,2 C 27,6 C 12,9 C 66 % 53 % 33 % 1016 hPa 0,0 l/m 0,1 km/h (0 Bft)
12.08.2021 16:28 24,1 C 27,5 C 12,9 C 65 % 55 % 33 % 1016 hPa 0,0 l/m 0,1 km/h (0 Bft)
12.08.2021 16:31 24,2 C 27,5 C 12,8 C 66 % 55 % 33 % 1016 hPa 0,0 l/m 3,5 km/h (1 Bft)
12.08.2021 16:34 24,2 C 27,5 C 13,0 C 66 % 55 % 33 % 1016 hPa 0,0 l/m 5,7 km/h (1 Bft)
12.08.2021 16:37 24,2 C 27,5 C 12,9 C 66 % 56 % 33 % 1016 hPa 0,0 l/m 3,6 km/h (1 Bft)
12.08.2021 16:40 24,2 C 27,5 C 12,8 C 66 % 56 % 33 % 1016 hPa 0,0 l/m 4,8 km/h (1 Bft)
12.08.2021 16:43 24,2 C 27,4 C 13,2 C 66 % 55 % 33 % 1016 hPa 0,0 l/m 4,7 km/h (1 Bft)
12.08.2021 16:46 24,1 C 27,4 C 13,2 C 66 % 55 % 33 % 1016 hPa 0,0 l/m 4,7 km/h (1 Bft)
12.08.2021 16:49 24,1 C 27,4 C 13,0 C 66 % 55 % 33 % 1016 hPa 0,0 l/m 3,7 km/h (1 Bft)
12.08.2021 16:52 24,1 C 27,5 C 12,9 C 65 % 56 % 33 % 1016 hPa 0,0 l/m 5,9 km/h (2 Bft)
12.08.2021 16:55 24,1 C 27,5 C 13,1 C 66 % 56 % 33 % 1016 hPa 0,0 l/m 4,3 km/h (1 Bft)
12.08.2021 16:58 24,1 C 27,4 C 13,1 C 66 % 55 % 33 % 1016 hPa 0,0 l/m 3,6 km/h (1 Bft)
12.08.2021 17:01 24,1 C 27,4 C 13,0 C 66 % 55 % 33 % 1016 hPa 0,0 l/m 4,8 km/h (1 Bft)
12.08.2021 17:04 24,1 C 27,4 C 13,0 C 65 % 55 % 33 % 1016 hPa 0,0 l/m 2,2 km/h (1 Bft)
12.08.2021 17:07 24,1 C 27,5 C 12,9 C 65 % 55 % 33 % 1016 hPa 0,0 l/m 5,3 km/h (1 Bft)
12.08.2021 17:10 24,1 C 27,6 C 13,1 C 65 % 55 % 33 % 1016 hPa 0,0 l/m 4,3 km/h (1 Bft)
12.08.2021 17:13 24,1 C 27,6 C 13,1 C 65 % 56 % 33 % 1016 hPa 0,0 l/m 4,6 km/h (1 Bft)
12.08.2021 17:16 24,1 C 27,6 C 12,9 C 65 % 56 % 33 % 1016 hPa 0,0 l/m 5,9 km/h (2 Bft)
12.08.2021 17:19 24,1 C 27,5 C 12,9 C 65 % 56 % 33 % 1016 hPa 0,0 l/m 3,7 km/h (1 Bft)
12.08.2021 17:22 24,1 C 27,6 C 12,9 C 65 % 53 % 33 % 1016 hPa 0,0 l/m 0,5 km/h (0 Bft)
12.08.2021 17:25 24,1 C 27,7 C 13,1 C 65 % 53 % 33 % 1016 hPa 0,0 l/m 3,6 km/h (1 Bft)
12.08.2021 17:28 24,1 C 27,8 C 13,2 C 65 % 52 % 33 % 1016 hPa 0,0 l/m 2,8 km/h (1 Bft)
12.08.2021 17:31 24,1 C 27,7 C 13,0 C 65 % 54 % 33 % 1016 hPa 0,0 l/m 0,4 km/h (0 Bft)
12.08.2021 17:34 24,1 C 27,6 C 13,2 C 65 % 53 % 33 % 1016 hPa 0,0 l/m 5,4 km/h (1 Bft)
12.08.2021 17:37 24,1 C 27,8 C 13,1 C 65 % 53 % 33 % 1016 hPa 0,0 l/m 5,4 km/h (1 Bft)
12.08.2021 17:40 24,1 C 27,8 C 13,0 C 65 % 53 % 33 % 1016 hPa 0,0 l/m 4,3 km/h (1 Bft)
12.08.2021 17:43 24,1 C 27,7 C 13,0 C 65 % 55 % 33 % 1016 hPa 0,0 l/m 3,1 km/h (1 Bft)
12.08.2021 17:46 24,1 C 27,7 C 13,2 C 65 % 55 % 33 % 1016 hPa 0,0 l/m 5,4 km/h (1 Bft)
12.08.2021 17:49 24,1 C 27,7 C 13,3 C 65 % 54 % 33 % 1016 hPa 0,0 l/m 4,1 km/h (1 Bft)
12.08.2021 17:52 24,1 C 27,7 C 13,4 C 65 % 54 % 33 % 1016 hPa 0,0 l/m 4,5 km/h (1 Bft)
12.08.2021 17:55 24,1 C 27,7 C 13,1 C 65 % 54 % 33 % 1016 hPa 0,0 l/m 0,3 km/h (0 Bft)
12.08.2021 17:58 24,1 C 27,6 C 13,2 C 65 % 53 % 33 % 1016 hPa 0,0 l/m 3,6 km/h (1 Bft)
12.08.2021 18:01 24,1 C 27,7 C 13,2 C 65 % 54 % 33 % 1016 hPa 0,0 l/m 6,9 km/h (2 Bft)
12.08.2021 18:04 24,1 C 27,6 C 13,2 C 65 % 53 % 33 % 1016 hPa 0,0 l/m 3,4 km/h (1 Bft)
12.08.2021 18:07 24,1 C 27,7 C 13,2 C 65 % 53 % 33 % 1016 hPa 0,0 l/m 4,6 km/h (1 Bft)
12.08.2021 18:10 24,1 C 27,6 C 13,4 C 65 % 54 % 33 % 1016 hPa 0,0 l/m 3,5 km/h (1 Bft)
12.08.2021 18:13 24,1 C 27,7 C 13,5 C 65 % 53 % 33 % 1016 hPa 0,0 l/m 6,2 km/h (2 Bft)
12.08.2021 18:16 24,1 C 27,7 C 13,5 C 65 % 53 % 33 % 1016 hPa 0,0 l/m 3,0 km/h (1 Bft)
12.08.2021 18:19 24,1 C 27,7 C 13,4 C 65 % 51 % 33 % 1016 hPa 0,0 l/m 4,0 km/h (1 Bft)
12.08.2021 18:22 24,1 C 27,6 C 13,3 C 65 % 53 % 33 % 1016 hPa 0,0 l/m 3,3 km/h (1 Bft)
12.08.2021 18:25 24,1 C 27,5 C 13,3 C 65 % 54 % 33 % 1016 hPa 0,0 l/m 3,3 km/h (1 Bft)
12.08.2021 18:28 24,1 C 27,4 C 13,2 C 65 % 54 % 33 % 1016 hPa 0,0 l/m 3,9 km/h (1 Bft)
12.08.2021 18:31 24,1 C 27,3 C 13,2 C 65 % 54 % 33 % 1016 hPa 0,0 l/m 3,5 km/h (1 Bft)
12.08.2021 18:34 24,1 C 27,2 C 13,2 C 65 % 55 % 33 % 1016 hPa 0,0 l/m 1,9 km/h (1 Bft)
12.08.2021 18:37 24,1 C 27,0 C 13,2 C 65 % 55 % 33 % 1016 hPa 0,0 l/m 1,6 km/h (1 Bft)
12.08.2021 18:40 24,1 C 27,0 C 13,3 C 65 % 57 % 33 % 1016 hPa 0,0 l/m 0,7 km/h (0 Bft)
12.08.2021 18:43 24,1 C 26,8 C 13,3 C 65 % 58 % 33 % 1016 hPa 0,0 l/m 2,1 km/h (1 Bft)
12.08.2021 18:46 24,1 C 26,7 C 13,3 C 65 % 59 % 33 % 1016 hPa 0,0 l/m 1,0 km/h (0 Bft)
12.08.2021 18:49 24,1 C 26,7 C 13,3 C 65 % 59 % 33 % 1016 hPa 0,0 l/m 0,0 km/h (0 Bft)
12.08.2021 18:52 24,2 C 26,7 C 13,3 C 65 % 59 % 33 % 1016 hPa 0,0 l/m 0,1 km/h (0 Bft)
12.08.2021 18:55 24,1 C 26,7 C 13,3 C 65 % 59 % 33 % 1016 hPa 0,0 l/m 0,1 km/h (0 Bft)
12.08.2021 18:58 24,1 C 26,7 C 13,4 C 65 % 60 % 33 % 1016 hPa 0,0 l/m 1,4 km/h (1 Bft)
12.08.2021 19:01 24,1 C 26,6 C 13,4 C 65 % 59 % 33 % 1016 hPa 0,0 l/m 1,8 km/h (1 Bft)
12.08.2021 19:04 24,1 C 26,6 C 13,3 C 65 % 60 % 33 % 1016 hPa 0,0 l/m 0,3 km/h (0 Bft)
12.08.2021 19:07 24,1 C 26,5 C 13,4 C 65 % 61 % 33 % 1016 hPa 0,0 l/m 0,0 km/h (0 Bft)
12.08.2021 19:10 24,1 C 26,3 C 13,4 C 65 % 61 % 33 % 1016 hPa 0,0 l/m 0,0 km/h (0 Bft)
12.08.2021 19:13 24,1 C 26,2 C 13,4 C 65 % 62 % 33 % 1016 hPa 0,0 l/m 0,0 km/h (0 Bft)
12.08.2021 19:16 24,1 C 26,0 C 13,5 C 65 % 62 % 33 % 1016 hPa 0,0 l/m 0,0 km/h (0 Bft)
12.08.2021 19:19 24,1 C 25,9 C 13,4 C 65 % 63 % 33 % 1016 hPa 0,0 l/m 0,0 km/h (0 Bft)
12.08.2021 19:22 24,1 C 25,9 C 13,5 C 65 % 63 % 33 % 1016 hPa 0,0 l/m 0,0 km/h (0 Bft)
12.08.2021 19:25 24,1 C 25,7 C 13,5 C 65 % 64 % 33 % 1016 hPa 0,0 l/m 0,0 km/h (0 Bft)
12.08.2021 19:28 24,1 C 25,6 C 13,5 C 65 % 64 % 33 % 1016 hPa 0,0 l/m 0,0 km/h (0 Bft)
12.08.2021 19:31 24,1 C 25,6 C 13,5 C 65 % 66 % 33 % 1016 hPa 0,0 l/m 0,0 km/h (0 Bft)
12.08.2021 19:34 24,1 C 25,7 C 13,5 C 65 % 67 % 33 % 1016 hPa 0,0 l/m 0,0 km/h (0 Bft)
12.08.2021 19:37 24,1 C 25,6 C 13,8 C 65 % 67 % 33 % 1016 hPa 0,0 l/m 0,0 km/h (0 Bft)
12.08.2021 19:40 24,1 C 25,5 C 13,8 C 65 % 67 % 33 % 1016 hPa 0,0 l/m 0,0 km/h (0 Bft)
12.08.2021 19:43 24,1 C 25,4 C 13,8 C 65 % 68 % 33 % 1016 hPa 0,0 l/m 0,0 km/h (0 Bft)
12.08.2021 19:46 24,1 C 25,3 C 13,7 C 65 % 68 % 33 % 1016 hPa 0,0 l/m 0,0 km/h (0 Bft)
12.08.2021 19:49 24,1 C 25,3 C 13,7 C 65 % 68 % 33 % 1016 hPa 0,0 l/m 0,0 km/h (0 Bft)
12.08.2021 19:52 24,1 C 25,2 C 13,6 C 65 % 68 % 33 % 1016 hPa 0,0 l/m 0,0 km/h (0 Bft)
12.08.2021 19:55 24,1 C 25,1 C 13,7 C 65 % 69 % 33 % 1016 hPa 0,0 l/m 0,0 km/h (0 Bft)
12.08.2021 19:58 24,1 C 25,1 C 13,6 C 65 % 69 % 33 % 1016 hPa 0,0 l/m 0,0 km/h (0 Bft)
12.08.2021 20:01 24,1 C 24,9 C 13,6 C 65 % 70 % 33 % 1016 hPa 0,0 l/m 0,0 km/h (0 Bft)
12.08.2021 20:04 24,1 C 24,8 C 13,6 C 65 % 70 % 33 % 1016 hPa 0,0 l/m 0,0 km/h (0 Bft)
12.08.2021 20:07 24,1 C 24,8 C 13,6 C 65 % 70 % 33 % 1016 hPa 0,0 l/m 0,0 km/h (0 Bft)
12.08.2021 20:10 24,1 C 24,7 C 13,6 C 65 % 71 % 33 % 1016 hPa 0,0 l/m 0,0 km/h (0 Bft)
12.08.2021 20:13 24,1 C 24,6 C 13,7 C 65 % 71 % 33 % 1016 hPa 0,0 l/m 0,0 km/h (0 Bft)
12.08.2021 20:16 24,1 C 24,5 C 13,8 C 65 % 72 % 33 % 1016 hPa 0,0 l/m 0,0 km/h (0 Bft)
12.08.2021 20:19 24,1 C 24,4 C 13,7 C 65 % 72 % 33 % 1016 hPa 0,0 l/m 0,0 km/h (0 Bft)
12.08.2021 20:22 24,1 C 24,3 C 13,8 C 65 % 72 % 33 % 1016 hPa 0,0 l/m 0,0 km/h (0 Bft)
12.08.2021 20:25 24,1 C 24,2 C 13,7 C 65 % 71 % 33 % 1016 hPa 0,0 l/m 0,0 km/h (0 Bft)
12.08.2021 20:28 24,1 C 24,1 C 13,8 C 65 % 71 % 33 % 1016 hPa 0,0 l/m 0,0 km/h (0 Bft)
12.08.2021 20:31 24,1 C 23,9 C 13,7 C 65 % 72 % 33 % 1016 hPa 0,0 l/m 0,0 km/h (0 Bft)
12.08.2021 20:34 24,1 C 23,9 C 13,8 C 65 % 72 % 33 % 1016 hPa 0,0 l/m 0,0 km/h (0 Bft)
12.08.2021 20:37 24,1 C 23,8 C 13,8 C 65 % 72 % 33 % 1016 hPa 0,0 l/m 0,0 km/h (0 Bft)
12.08.2021 20:40 24,1 C 23,7 C 13,8 C 65 % 72 % 33 % 1016 hPa 0,0 l/m 0,0 km/h (0 Bft)
12.08.2021 20:43 24,1 C 23,6 C 13,8 C 65 % 73 % 33 % 1016 hPa 0,0 l/m 0,0 km/h (0 Bft)
12.08.2021 20:46 24,1 C 23,5 C 13,8 C 65 % 73 % 33 % 1016 hPa 0,0 l/m 0,0 km/h (0 Bft)
12.08.2021 20:49 24,1 C 23,4 C 13,8 C 65 % 73 % 33 % 1016 hPa 0,0 l/m 0,0 km/h (0 Bft)
12.08.2021 20:52 24,1 C 23,3 C 13,8 C 65 % 73 % 33 % 1016 hPa 0,0 l/m 0,0 km/h (0 Bft)
12.08.2021 20:55 24,1 C 23,2 C 13,9 C 65 % 73 % 33 % 1016 hPa 0,0 l/m 0,0 km/h (0 Bft)
12.08.2021 20:58 24,1 C 23,2 C 13,8 C 65 % 73 % 33 % 1016 hPa 0,0 l/m 0,0 km/h (0 Bft)
12.08.2021 21:01 24,1 C 23,1 C 13,9 C 65 % 73 % 33 % 1016 hPa 0,0 l/m 0,0 km/h (0 Bft)
12.08.2021 21:04 24,1 C 23,0 C 13,9 C 65 % 74 % 33 % 1016 hPa 0,0 l/m 0,0 km/h (0 Bft)
12.08.2021 21:07 24,1 C 23,0 C 13,9 C 65 % 74 % 33 % 1016 hPa 0,0 l/m 0,0 km/h (0 Bft)
12.08.2021 21:10 24,1 C 22,9 C 13,9 C 65 % 75 % 33 % 1016 hPa 0,0 l/m 0,0 km/h (0 Bft)
12.08.2021 21:13 24,1 C 22,8 C 13,9 C 65 % 75 % 33 % 1016 hPa 0,0 l/m 0,0 km/h (0 Bft)
12.08.2021 21:16 24,1 C 22,7 C 14,0 C 65 % 75 % 33 % 1016 hPa 0,0 l/m 0,0 km/h (0 Bft)
12.08.2021 21:19 24,1 C 22,6 C 13,9 C 65 % 75 % 33 % 1016 hPa 0,0 l/m 0,0 km/h (0 Bft)
12.08.2021 21:22 24,1 C 22,5 C 14,0 C 65 % 75 % 33 % 1016 hPa 0,0 l/m 0,0 km/h (0 Bft)
12.08.2021 21:25 24,1 C 22,4 C 13,9 C 65 % 76 % 33 % 1016 hPa 0,0 l/m 0,0 km/h (0 Bft)
12.08.2021 21:28 24,1 C 22,4 C 13,9 C 65 % 76 % 33 % 1016 hPa 0,0 l/m 0,0 km/h (0 Bft)
12.08.2021 21:31 24,1 C 22,4 C 13,9 C 65 % 76 % 33 % 1016 hPa 0,0 l/m 0,0 km/h (0 Bft)
12.08.2021 21:34 24,1 C 22,3 C 13,9 C 65 % 76 % 33 % 1016 hPa 0,0 l/m 0,0 km/h (0 Bft)
12.08.2021 21:37 24,1 C 22,2 C 14,0 C 65 % 76 % 33 % 1016 hPa 0,0 l/m 0,0 km/h (0 Bft)
12.08.2021 21:40 24,1 C 22,1 C 14,1 C 65 % 77 % 33 % 1016 hPa 0,0 l/m 0,0 km/h (0 Bft)
12.08.2021 21:43 24,1 C 22,1 C 14,1 C 65 % 77 % 33 % 1016 hPa 0,0 l/m 0,0 km/h (0 Bft)
12.08.2021 21:46 24,1 C 22,0 C 14,1 C 65 % 77 % 33 % 1016 hPa 0,0 l/m 0,0 km/h (0 Bft)
12.08.2021 21:49 24,1 C 21,9 C 14,0 C 65 % 77 % 33 % 1016 hPa 0,0 l/m 0,0 km/h (0 Bft)
12.08.2021 21:52 24,1 C 21,9 C 13,9 C 65 % 77 % 33 % 1016 hPa 0,0 l/m 0,0 km/h (0 Bft)
12.08.2021 21:55 24,1 C 21,8 C 13,9 C 65 % 77 % 33 % 1016 hPa 0,0 l/m 0,0 km/h (0 Bft)
12.08.2021 21:58 24,1 C 21,8 C 13,9 C 65 % 77 % 33 % 1016 hPa 0,0 l/m 0,0 km/h (0 Bft)
12.08.2021 22:01 24,1 C 21,8 C 13,9 C 65 % 77 % 33 % 1016 hPa 0,0 l/m 0,0 km/h (0 Bft)
12.08.2021 22:04 24,1 C 21,8 C 13,9 C 65 % 77 % 33 % 1016 hPa 0,0 l/m 0,0 km/h (0 Bft)
12.08.2021 22:07 24,1 C 21,7 C 13,9 C 65 % 77 % 33 % 1016 hPa 0,0 l/m 0,0 km/h (0 Bft)
12.08.2021 22:10 24,1 C 21,6 C 14,0 C 65 % 78 % 33 % 1016 hPa 0,0 l/m 0,0 km/h (0 Bft)
12.08.2021 22:13 24,1 C 21,6 C 14,0 C 65 % 78 % 33 % 1016 hPa 0,0 l/m 0,0 km/h (0 Bft)
12.08.2021 22:16 24,1 C 21,5 C 14,0 C 65 % 78 % 33 % 1016 hPa 0,0 l/m 0,0 km/h (0 Bft)
12.08.2021 22:19 24,1 C 21,5 C 14,0 C 65 % 78 % 33 % 1016 hPa 0,0 l/m 0,0 km/h (0 Bft)
12.08.2021 22:22 24,1 C 21,4 C 14,0 C 65 % 79 % 33 % 1016 hPa 0,0 l/m 0,0 km/h (0 Bft)
12.08.2021 22:25 24,1 C 21,4 C 14,0 C 65 % 78 % 33 % 1016 hPa 0,0 l/m 0,0 km/h (0 Bft)
12.08.2021 22:28 24,1 C 21,3 C 14,0 C 65 % 78 % 33 % 1016 hPa 0,0 l/m 0,0 km/h (0 Bft)
12.08.2021 22:31 24,1 C 21,3 C 14,0 C 65 % 79 % 33 % 1016 hPa 0,0 l/m 0,0 km/h (0 Bft)
12.08.2021 22:34 24,1 C 21,3 C 14,0 C 65 % 79 % 33 % 1016 hPa 0,0 l/m 0,0 km/h (0 Bft)
12.08.2021 22:37 24,1 C 21,2 C 14,0 C 65 % 79 % 33 % 1016 hPa 0,0 l/m 0,0 km/h (0 Bft)
12.08.2021 22:40 24,1 C 21,2 C 14,0 C 65 % 79 % 33 % 1016 hPa 0,0 l/m 0,0 km/h (0 Bft)
12.08.2021 22:43 24,1 C 21,1 C 14,1 C 65 % 79 % 33 % 1016 hPa 0,0 l/m 0,0 km/h (0 Bft)
12.08.2021 22:46 24,1 C 21,0 C 14,1 C 65 % 79 % 33 % 1016 hPa 0,0 l/m 0,0 km/h (0 Bft)
12.08.2021 22:49 24,1 C 21,0 C 14,1 C 65 % 79 % 33 % 1016 hPa 0,0 l/m 0,0 km/h (0 Bft)
12.08.2021 22:52 24,1 C 20,9 C 14,1 C 65 % 79 % 33 % 1016 hPa 0,0 l/m 0,0 km/h (0 Bft)
12.08.2021 22:55 24,1 C 20,8 C 14,1 C 65 % 79 % 33 % 1016 hPa 0,0 l/m 0,0 km/h (0 Bft)
12.08.2021 22:58 24,1 C 20,8 C 14,1 C 65 % 79 % 33 % 1016 hPa 0,0 l/m 0,0 km/h (0 Bft)
12.08.2021 23:01 24,1 C 20,6 C 14,1 C 65 % 79 % 33 % 1016 hPa 0,0 l/m 0,0 km/h (0 Bft)
12.08.2021 23:04 24,1 C 20,5 C 14,1 C 65 % 80 % 33 % 1016 hPa 0,0 l/m 0,0 km/h (0 Bft)
12.08.2021 23:07 24,1 C 20,4 C 14,0 C 65 % 80 % 33 % 1017 hPa 0,0 l/m 0,0 km/h (0 Bft)
12.08.2021 23:10 24,1 C 20,4 C 14,1 C 65 % 80 % 33 % 1017 hPa 0,0 l/m 0,0 km/h (0 Bft)
12.08.2021 23:13 24,1 C 20,4 C 14,1 C 65 % 80 % 33 % 1017 hPa 0,0 l/m 0,0 km/h (0 Bft)
12.08.2021 23:16 24,1 C 20,2 C 14,1 C 65 % 80 % 33 % 1017 hPa 0,0 l/m 0,0 km/h (0 Bft)
12.08.2021 23:19 24,1 C 20,2 C 14,0 C 65 % 80 % 33 % 1017 hPa 0,0 l/m 0,0 km/h (0 Bft)
12.08.2021 23:22 24,1 C 20,1 C 14,1 C 65 % 80 % 33 % 1017 hPa 0,0 l/m 0,0 km/h (0 Bft)
12.08.2021 23:25 24,1 C 20,1 C 14,0 C 65 % 80 % 33 % 1017 hPa 0,0 l/m 0,0 km/h (0 Bft)
12.08.2021 23:28 24,1 C 20,1 C 14,0 C 65 % 80 % 33 % 1017 hPa 0,0 l/m 0,0 km/h (0 Bft)
12.08.2021 23:31 24,1 C 20,0 C 14,0 C 65 % 80 % 33 % 1017 hPa 0,0 l/m 0,0 km/h (0 Bft)
12.08.2021 23:34 24,1 C 20,0 C 14,0 C 65 % 80 % 33 % 1017 hPa 0,0 l/m 0,0 km/h (0 Bft)
12.08.2021 23:37 24,1 C 20,0 C 14,0 C 65 % 80 % 33 % 1017 hPa 0,0 l/m 0,0 km/h (0 Bft)
12.08.2021 23:40 24,1 C 20,0 C 14,0 C 65 % 80 % 33 % 1017 hPa 0,0 l/m 0,0 km/h (0 Bft)
12.08.2021 23:43 24,1 C 19,9 C 14,1 C 65 % 80 % 33 % 1017 hPa 0,0 l/m 0,0 km/h (0 Bft)
12.08.2021 23:46 24,1 C 19,9 C 14,1 C 65 % 80 % 33 % 1017 hPa 0,0 l/m 0,0 km/h (0 Bft)
12.08.2021 23:49 24,1 C 19,9 C 14,1 C 65 % 80 % 33 % 1017 hPa 0,0 l/m 0,0 km/h (0 Bft)
12.08.2021 23:52 24,1 C 19,8 C 14,1 C 65 % 80 % 33 % 1017 hPa 0,0 l/m 0,0 km/h (0 Bft)
12.08.2021 23:55 24,1 C 19,8 C 14,1 C 65 % 80 % 33 % 1017 hPa 0,0 l/m 0,0 km/h (0 Bft)
12.08.2021 23:58 24,1 C 19,9 C 14,1 C 66 % 80 % 33 % 1017 hPa 0,0 l/m 0,0 km/h (0 Bft)
_ Min-Zeit 00:31 06:28 13:55 09:40 18:19 - 15:31 - 00:00
Minimum _ 23,6 C 15,9 C 11,9 C 64 % 51 % - 1016 hPa - 0,0 km/h (0 Bft)
_ Max-Zeit 16:07 17:28 21:40 16:10 02:16 00:00 08:01 00:00 10:49
Maximum _ 24,2 C 27,8 C 14,1 C 66 % 83 % 33 % 1018 hPa 0,0 l/m 13,7 km/h
S-SO (3 Bft)
Durchschnitt _ 23,9 C 22,0 C 13,0 C 65 % 72 % #4:18 h 1017 hPa #0,0 l/m 2,5 km/h (1 Bft)